Weather in Kirillovka

Russia / Bryansk Oblast     52°06′31″N   32°09′52″E
temp.,
°C
wind,
m/s
gust,
m/s
humid.,
%
clouds,
%
prec.,
mm/h
press.,
hPa
HPBL,
m
9 may, sun
sun900:00+4nw61481100 0.1 1014686
03:00+2wnw514871 0.1 1016401
06:00+1wnw512880 0.0 1018347
09:00+6nw610675 0.0 10201042
12:00+10nw794841 0.0 10212048
15:00+12nw794297 0.0 10222492
18:00+11nnw57525 0.0 10232040
21:00+6nnw33630 0.0 102624
10 may, mon
mon1000:00+4nnw22685 0.0 102710
03:00+3nnw11685 0.0 102810
06:00+3nne11705 0.0 102910
09:00+10nne22550 0.0 1029370
12:00+13nne33430 0.0 10291324
15:00+15nne34415 0.0 10281576
18:00+14nne35532 0.0 10271334
21:00+9ne33690 0.0 102834
11 may, tue
tue1100:00+6ne36730 0.0 102784
03:00+5nne36770 0.0 102795
06:00+5nne513772 0.0 1026287
09:00+11ne7116383 0.0 1025512
12:00+14ne696339 0.0 1023655
15:00+19ne796055 0.0 10221410
18:00+16e7118170 0.5 1022885
21:00+11ene410921 0.5 1022252
12 may, wed
wed1200:00+9e410965 0.0 1022226
03:00+7ene349244 0.0 102165
06:00+8ene4119099 0.1 1020405
09:00+12e797298 0.1 10191266
12:00+11ese7137391 0.1 10181369
15:00+10e71081100 0.3 1018959
18:00+10ese7118086 0.2 10171108
21:00+9e6138992 0.8 1016494
13 may, thu
thu1300:00+9ese51192100 0.4 1015506
03:00+8ese4109599 1.5 1014494
06:00+7se499879 0.1 1014349
09:00+11se588198 0.1 1014580
12:00+16se796772 0.1 10131511
15:00+17sse6962100 0.4 10131594
18:00+17se597074 0.1 10121130
21:00+13e41188100 0.2 1011250